Burlington, WI

7:42 AM CDT on March 29, 2017 (GMT -0500)
Burlington

Weather History for KBUU - March, 2013

Change the Weather History Date:

Thursday, March 21, 2013

  Actual Average (KENW) Record (KENW)
Temperature  
Mean Temperature 19 °F -  
Max Temperature 28 °F 42 °F 84 °F (2012)
Min Temperature 10 °F 27 °F 6 °F (1965)
Degree Days  
Heating Degree Days 46    
Moisture  
Dew Point 9 °F    
Average Humidity 66    
Maximum Humidity 86    
Minimum Humidity 51    
Precipitation  
Precipitation 0.00 in - - ()
Sea Level Pressure  
Sea Level Pressure 30.01 in    
Wind  
Wind Speed 9 mph (WNW)    
Max Wind Speed 14 mph    
Max Gust Speed 20 mph    
Visibility 10 miles    
Events      
Averages and records for this station are not official NWS values.
T = Trace of Precipitation, MM = Missing Value Source: NWS Daily Summary

Daily Weather History Graph

Daily Weather History Graph

Search for Another Location

Airport or City:

Trip Planner

Search our weather history database for the weather conditions in past years. The results will help you decide how hot, cold, wet, or windy it might be!

Date:

Astronomy

Mar. 21, 2013 Rise Set
Actual Time 6:54 AM CDT 7:06 PM CDT
Civil Twilight 6:26 AM CDT 7:35 PM CDT
Nautical Twilight 5:53 AM CDT 8:08 PM CDT
Astronomical Twilight 5:19 AM CDT 8:42 PM CDT
Moon 1:30 PM CDT (3/21) 3:22 AM CDT (3/21)
Length of Visible Light 13h 09m
Length of Day
12h 12m
Waxing Gibbous, 69% of the Moon is Illuminated
Mar 21
Waxing Gibbous
Mar 27
Full
Apr 2
Last Quarter
Apr 10
New
Apr 18
First Quarter

Hourly Weather History & Observations

Time (CDT) Temp. Windchill Dew Point Humidity Pressure Visibility Wind Dir Wind Speed Gust Speed Precip Events Conditions
12:35 AM 12.2 °F -1.8 °F 3.2 °F 67% 30.02 in 10.0 mi WNW 11.5 mph - N/A   Clear
1:15 AM 12.2 °F -1.8 °F 3.2 °F 67% 30.01 in 10.0 mi WNW 11.5 mph - N/A   Clear
1:35 AM 12.2 °F -0.2 °F 3.2 °F 67% 30.01 in 10.0 mi WNW 9.2 mph - N/A   Clear
1:55 AM 10.4 °F -2.4 °F 3.2 °F 73% 30.01 in 10.0 mi NW 9.2 mph - N/A   Clear
2:15 AM 10.4 °F -3.3 °F 3.2 °F 73% 30.01 in 10.0 mi NW 10.4 mph - N/A   Clear
2:35 AM 10.4 °F -4.1 °F 3.2 °F 73% 30.01 in 10.0 mi NW 11.5 mph - N/A   Clear
2:55 AM 10.4 °F -3.3 °F 3.2 °F 73% 30.01 in 10.0 mi NW 10.4 mph - N/A   Clear
3:15 AM 10.4 °F -1.5 °F 3.2 °F 73% 30.00 in 10.0 mi NNW 8.1 mph - N/A   Clear
3:35 AM 10.4 °F -0.4 °F 3.2 °F 73% 30.00 in 10.0 mi NW 6.9 mph - N/A   Clear
3:55 AM 10.4 °F 0.8 °F 3.2 °F 73% 29.99 in 10.0 mi WNW 5.8 mph - N/A   Clear
4:15 AM 10.4 °F 2.2 °F 3.2 °F 73% 29.99 in 10.0 mi WNW 4.6 mph - N/A   Clear
4:35 AM 10.4 °F 2.2 °F 3.2 °F 73% 29.99 in 10.0 mi WNW 4.6 mph - N/A   Clear
4:55 AM 10.4 °F -1.5 °F 3.2 °F 73% 29.99 in 10.0 mi WNW 8.1 mph - N/A   Clear
5:15 AM 10.4 °F -1.5 °F 3.2 °F 73% 30.00 in 10.0 mi WNW 8.1 mph - N/A   Clear
5:35 AM 10.4 °F 0.8 °F 3.2 °F 73% 30.00 in 10.0 mi WNW 5.8 mph - N/A   Clear
5:55 AM 10.4 °F 2.2 °F 3.2 °F 73% 30.00 in 10.0 mi West 4.6 mph - N/A   Clear
6:15 AM 10.4 °F -0.4 °F 3.2 °F 73% 30.00 in 10.0 mi WNW 6.9 mph - N/A   Clear
6:35 AM 10.4 °F -0.4 °F 3.2 °F 73% 30.01 in 10.0 mi WNW 6.9 mph - N/A   Clear
6:55 AM 10.4 °F -0.4 °F 3.2 °F 73% 30.00 in 10.0 mi WNW 6.9 mph - N/A   Clear
7:15 AM 10.4 °F -1.5 °F 3.2 °F 73% 30.00 in 10.0 mi WNW 8.1 mph - N/A   Clear
7:35 AM 10.4 °F -0.4 °F 3.2 °F 73% 30.00 in 10.0 mi WNW 6.9 mph - N/A   Clear
7:55 AM 12.2 °F -0.2 °F 5.0 °F 73% 30.00 in 10.0 mi WNW 9.2 mph - N/A   Clear
8:15 AM 14.0 °F 3.9 °F 5.0 °F 67% 30.01 in 10.0 mi WNW 6.9 mph - N/A   Clear
8:35 AM 14.0 °F 2.0 °F 5.0 °F 67% 30.01 in 10.0 mi NW 9.2 mph - N/A   Clear
8:55 AM 15.8 °F 3.4 °F 6.8 °F 68% 30.00 in 10.0 mi WNW 10.4 mph - N/A   Clear
9:15 AM 17.6 °F 7.3 °F 6.8 °F 63% 30.01 in 10.0 mi WNW 8.1 mph - N/A   Clear
9:35 AM 17.6 °F 4.3 °F 8.6 °F 68% 30.01 in 10.0 mi WNW 12.7 mph - N/A   Clear
9:55 AM 19.4 °F 6.6 °F 8.6 °F 63% 30.02 in 10.0 mi WNW 12.7 mph - N/A   Clear
10:15 AM 19.4 °F 7.2 °F 8.6 °F 63% 30.03 in 10.0 mi WNW 11.5 mph - N/A   Clear
10:35 AM 21.2 °F 8.3 °F 10.4 °F 63% 30.03 in 10.0 mi WNW 13.8 mph 19.6 mph N/A   Clear
10:55 AM 21.2 °F 8.3 °F 10.4 °F 63% 30.03 in 10.0 mi WNW 13.8 mph 18.4 mph N/A   Clear
11:35 AM 23.0 °F 13.9 °F 10.4 °F 59% 30.03 in 10.0 mi WNW 8.1 mph - N/A   Clear
11:55 AM 24.8 °F 14.6 °F 12.2 °F 59% 30.02 in 10.0 mi NW 10.4 mph - N/A   Clear
12:15 PM 26.6 °F 16.2 °F 12.2 °F 55% 30.02 in 10.0 mi WNW 11.5 mph - N/A   Clear
12:35 PM 26.6 °F 17.5 °F 14.0 °F 59% 30.02 in 10.0 mi NW 9.2 mph - N/A   Clear
12:55 PM 26.6 °F 15.7 °F 12.2 °F 55% 30.02 in 10.0 mi NNW 12.7 mph - N/A   Clear
1:15 PM 26.6 °F 17.5 °F 14.0 °F 59% 30.03 in 10.0 mi NW 9.2 mph - N/A   Clear
1:35 PM 26.6 °F 16.2 °F 12.2 °F 55% 30.03 in 10.0 mi NNW 11.5 mph - N/A   Clear
1:55 PM 28.4 °F 19.1 °F 14.0 °F 55% 30.02 in 10.0 mi WNW 10.4 mph - N/A   Clear
2:15 PM 28.4 °F 19.7 °F 14.0 °F 55% 30.02 in 10.0 mi NW 9.2 mph - N/A   Clear
2:35 PM 28.4 °F 19.7 °F 14.0 °F 55% 30.01 in 10.0 mi NW 9.2 mph - N/A   Clear
2:55 PM 28.4 °F 19.7 °F 14.0 °F 55% 30.01 in 10.0 mi West 9.2 mph - N/A   Clear
3:15 PM 28.4 °F 19.7 °F 14.0 °F 55% 30.00 in 10.0 mi NW 9.2 mph - N/A   Clear
3:35 PM 28.4 °F 19.1 °F 14.0 °F 55% 30.00 in 10.0 mi WNW 10.4 mph 16.1 mph N/A   Clear
3:55 PM 28.4 °F 19.1 °F 14.0 °F 55% 30.00 in 10.0 mi WNW 10.4 mph - N/A   Clear
4:15 PM 28.4 °F 20.4 °F 14.0 °F 55% 30.00 in 10.0 mi WNW 8.1 mph - N/A   Clear
4:35 PM 28.4 °F 18.5 °F 14.0 °F 55% 30.00 in 10.0 mi West 11.5 mph 16.1 mph N/A   Clear
4:55 PM 28.4 °F 19.7 °F 12.2 °F 51% 29.99 in 10.0 mi West 9.2 mph - N/A   Clear
5:15 PM 28.4 °F 20.4 °F 12.2 °F 51% 29.99 in 10.0 mi West 8.1 mph - N/A   Clear
5:35 PM 28.4 °F 21.2 °F 14.0 °F 55% 29.99 in 10.0 mi WNW 6.9 mph - N/A   Clear
5:55 PM 28.4 °F 23.3 °F 14.0 °F 55% 29.99 in 10.0 mi West 4.6 mph - N/A   Clear
6:15 PM 26.6 °F 20.0 °F 14.0 °F 59% 29.99 in 10.0 mi West 5.8 mph - N/A   Clear
6:35 PM 26.6 °F 19.1 °F 14.0 °F 59% 29.99 in 10.0 mi WNW 6.9 mph - N/A   Clear
6:55 PM 24.8 °F 19.1 °F 14.0 °F 64% 29.99 in 10.0 mi WNW 4.6 mph - N/A   Clear
7:15 PM 23.0 °F 17.0 °F 12.2 °F 63% 29.99 in 10.0 mi West 4.6 mph - N/A   Clear
7:35 PM 23.0 °F 15.8 °F 12.2 °F 63% 30.00 in 10.0 mi West 5.8 mph - N/A   Clear
7:55 PM 23.0 °F 18.4 °F 14.0 °F 68% 30.00 in 10.0 mi West 3.5 mph - N/A   Clear
8:15 PM 21.2 °F 14.9 °F 12.2 °F 68% 30.00 in 10.0 mi West 4.6 mph - N/A   Clear
8:35 PM 21.2 °F 14.9 °F 12.2 °F 68% 30.01 in 10.0 mi West 4.6 mph - N/A   Clear
8:55 PM 21.2 °F - 12.2 °F 68% 30.01 in 10.0 mi Calm Calm - N/A   Clear
9:15 PM 21.2 °F 16.4 °F 14.0 °F 74% 30.02 in 10.0 mi West 3.5 mph - N/A   Clear
9:35 PM 21.2 °F 16.4 °F 12.2 °F 68% 30.02 in 10.0 mi West 3.5 mph - N/A   Clear
9:55 PM 19.4 °F 12.8 °F 12.2 °F 74% 30.02 in 10.0 mi WSW 4.6 mph - N/A   Clear
10:15 PM 19.4 °F 14.3 °F 14.0 °F 80% 30.02 in 10.0 mi West 3.5 mph - N/A   Clear
10:35 PM 17.6 °F - 14.0 °F 86% 30.03 in 10.0 mi Calm Calm - N/A   Clear
10:55 PM 17.6 °F 10.7 °F 12.2 °F 79% 30.02 in 10.0 mi WSW 4.6 mph - N/A   Clear
11:15 PM 19.4 °F 12.8 °F 12.2 °F 74% 30.02 in 10.0 mi West 4.6 mph - N/A   Clear
11:35 PM 19.4 °F - 12.2 °F 74% 30.02 in 10.0 mi Calm Calm - N/A   Clear
11:55 PM 19.4 °F - 12.2 °F 74% 30.02 in 10.0 mi Calm Calm - N/A   Clear